[[{"header":{"parameterUnit":"m.s-1","parameterCategory":1,"la1":30.2992,"la2":30.254,"lo1":-89.0895,"lo2":-89.0443,"dy":0.0025,"dx":0.0025,"nx":19,"ny":19,"refTime":"2026-03-18T21:00:00:Z","depth":0,"parameterNumber":2,"parameterNumberName":"U-component_of_WINDS"},"data":[0,0,0,1.2564,1.2568,1.2752,1.2752,1.2967,1.2969,0,0,0,0,0,0,0,0,0,0,0,1.2497,1.2498,1.2564,1.2568,1.2751,1.2752,1.2967,1.2969,0,0,0,0,0,0,0,0,0,0,0,1.2497,1.2498,1.2499,1.2569,1.2751,1.2752,1.2967,1.2835,0,0,0,0,0,0,0,0,0,0,1.266,1.2586,1.2498,1.2499,1.2569,1.2751,1.2753,1.2829,1.2843,1.2875,0,1.29,0,1.2938,1.2982,1.2983,0,0,0,1.2577,1.2574,1.2635,1.2499,1.2571,1.2751,1.2671,1.2837,1.2853,1.2894,1.2904,1.2912,1.2941,1.2983,1.2984,1.3136,1.3136,0,0,1.2567,1.2524,1.2624,1.2645,1.2615,1.2665,1.2677,1.2847,1.2855,1.2904,1.2918,1.2945,1.2985,1.2986,1.3136,1.3136,0,0,0,1.2532,1.2516,1.2573,1.2635,1.267,1.267,1.2684,1.2847,1.287,1.292,1.2947,1.2986,1.2988,1.3136,1.3136,1.3106,0,0,0,1.2526,1.2496,1.2568,1.2543,1.2666,1.2761,1.268,1.2858,1.2878,1.2946,1.2986,1.299,1.3135,1.3136,1.3106,1.3099,0,0,0,1.2489,1.2491,1.2514,1.2541,1.2618,1.2759,1.2792,1.2863,1.2895,1.2983,1.2991,1.3135,1.3136,1.3107,1.31,1.3125,0,0,0,1.2438,1.2485,1.2512,1.2576,1.2616,1.2739,1.2791,1.2885,1.2957,1.2987,1.3135,1.3136,1.3107,1.31,1.3125,1.3138,1.314,0,0,1.2474,1.2488,1.2529,1.2559,1.2666,1.2715,1.2818,1.2926,1.2974,1.3079,1.3084,1.3106,1.31,1.3125,1.3165,1.3166,0,0,0,1.2526,1.2555,1.2592,1.2659,1.2741,1.2812,1.2908,1.2948,1.3039,1.3019,1.3124,1.3122,1.3139,1.3147,1.3148,1.3164,1.3138,1.3138,1.3138,1.2514,1.2573,1.2644,1.2725,1.2788,1.2886,1.2943,1.3014,1.3056,1.3079,1.311,1.3127,1.3135,1.3136,1.3153,1.3123,1.3123,1.3123,1.3123,1.2571,1.262,1.2673,1.2761,1.2823,1.2898,1.2995,1.3021,1.31,1.3109,1.3127,1.3131,1.3135,1.3153,1.3121,1.3121,1.3122,1.3122,1.3122,1.2568,1.2602,1.2649,1.275,1.2821,1.2902,1.2974,1.3029,1.3081,1.3098,1.3136,1.3137,1.3143,1.3113,1.3113,1.3113,1.3113,1.3113,1.3113,1.2546,1.2601,1.2655,1.2746,1.2795,1.2866,1.2965,1.3015,1.3084,1.3118,1.3119,1.3157,1.3125,1.3115,1.3114,1.3114,1.3114,1.3114,1.3114,1.258,1.2581,1.2664,1.2713,1.2824,1.2891,1.2959,1.3056,1.3105,1.3139,1.3174,1.3142,1.3161,1.3161,1.3153,1.3162,1.3162,1.3162,1.3162,1.2577,1.2592,1.2689,1.2763,1.2843,1.2913,1.3005,1.3082,1.3162,1.3196,1.3203,1.3197,1.3194,1.3215,1.3214,1.3207,1.323,1.323,1.323,1.26,1.2625,1.2693,1.277,1.2861,1.2938,1.3026,1.3109,1.32,1.3234,1.3223,1.322,1.3212,1.3207,1.3239,1.3236,1.3225,0,0]},{"header":{"parameterUnit":"m.s-1","parameterCategory":1,"la1":30.2992,"la2":30.254,"lo1":-89.0895,"lo2":-89.0443,"dy":0.0025,"dx":0.0025,"nx":19,"ny":19,"refTime":"2026-03-18T21:00:00:Z","depth":0,"parameterNumber":3,"parameterNumberName":"V-component_of_WINDS"},"data":[0,0,0,2.5015,2.5015,2.5013,2.5013,2.5006,2.5006,0,0,0,0,0,0,0,0,0,0,0,2.5016,2.5016,2.5015,2.5015,2.5013,2.5013,2.5006,2.5006,0,0,0,0,0,0,0,0,0,0,0,2.5015,2.5016,2.5016,2.5015,2.5013,2.5013,2.5006,2.5008,0,0,0,0,0,0,0,0,0,0,2.5011,2.5013,2.5016,2.5016,2.5015,2.5013,2.5013,2.5008,2.5008,2.5006,0,2.5006,0,2.5006,2.5005,2.5005,0,0,0,2.5014,2.5013,2.5012,2.5016,2.5015,2.5013,2.5013,2.5008,2.5008,2.5005,2.5006,2.5006,2.5006,2.5005,2.5005,2.4998,2.4998,0,0,2.5014,2.5015,2.5012,2.5012,2.5015,2.5013,2.5013,2.5008,2.5008,2.5006,2.5006,2.5006,2.5005,2.5005,2.4999,2.4998,0,0,0,2.5015,2.5015,2.5014,2.5012,2.5012,2.5013,2.5013,2.5008,2.5008,2.5006,2.5006,2.5005,2.5005,2.4999,2.4999,2.4999,0,0,0,2.5015,2.5016,2.5015,2.5015,2.5012,2.5011,2.5014,2.5009,2.5008,2.5006,2.5005,2.5005,2.4999,2.4999,2.4999,2.4999,0,0,0,2.5015,2.5016,2.5016,2.5015,2.5015,2.5011,2.5011,2.5008,2.5008,2.5005,2.5005,2.4999,2.4999,2.4999,2.4999,2.4996,0,0,0,2.5016,2.5017,2.5016,2.5016,2.5015,2.5012,2.5011,2.5009,2.5007,2.5005,2.4999,2.4999,2.4999,2.4999,2.4997,2.4994,2.4993,0,0,2.5018,2.5018,2.5018,2.5016,2.5015,2.5013,2.501,2.5007,2.5005,2.5,2.5,2.4999,2.4999,2.4996,2.4991,2.499,0,0,0,2.5019,2.5018,2.5018,2.5016,2.5014,2.5011,2.5008,2.5006,2.5002,2.5003,2.4998,2.4998,2.4996,2.4995,2.4994,2.4991,2.4998,2.4998,2.4998,2.5023,2.502,2.5019,2.5016,2.5014,2.5009,2.5006,2.5002,2.5001,2.4999,2.4998,2.4995,2.4993,2.4993,2.499,2.4997,2.4997,2.4997,2.4997,2.5024,2.5023,2.5019,2.5017,2.5012,2.5009,2.5003,2.5001,2.4996,2.4996,2.4995,2.4994,2.4992,2.499,2.4997,2.4997,2.4997,2.4997,2.4997,2.5026,2.5025,2.5023,2.5018,2.5014,2.5009,2.5003,2.5,2.4996,2.4995,2.4991,2.4991,2.4989,2.4993,2.4993,2.4993,2.4993,2.4993,2.4993,2.5029,2.5027,2.5023,2.5019,2.5015,2.501,2.5003,2.4999,2.4993,2.499,2.499,2.4987,2.4994,2.4994,2.4993,2.4993,2.4993,2.4993,2.4993,2.503,2.5029,2.5024,2.5021,2.5013,2.5007,2.5002,2.4993,2.4989,2.4985,2.4981,2.4987,2.4986,2.4986,2.4987,2.4984,2.4984,2.4984,2.4984,2.5031,2.503,2.5023,2.5017,2.5011,2.5005,2.4995,2.4988,2.498,2.4976,2.4976,2.4976,2.4977,2.4975,2.4976,2.4976,2.497,2.497,2.497,2.5031,2.5028,2.5023,2.5016,2.5009,2.5001,2.4991,2.4982,2.4973,2.497,2.4972,2.4973,2.4974,2.4975,2.4973,2.4974,2.4974,0,0]}]]